Content
SEND FEEDBACK

Daily
Averages
Monthly
Summary
United States of America

JEMEZ SPRING, NEW MEXICO


Home > North America > United States > New Mexico
Elevation: 7728 feet     Latitude: 35 46N     Longitude: 106 40W

WEATHER
 
SELECT A DAY
Number of Records: 236,761;   Date Range: 1/1/95 - 7/26/14
 
SHARE

PRINT THIS DATA

[ ← Previous Day ]
WEATHER ALMANAC - FEBRUARY 5, 2013
[ Next Day → ]
[ °C ]   °F
Weather ElementAverageHighLow
Temperature41.1 °F52.7 °F (2:55 pm)30.2 °F (7:15 am)
Dewpoint15.8 °F22.6 °F (9:55 am)10.8 °F (5:55 pm)
Humidity38.7 %67 % (6:35 am)20 % (2:55 pm)
Barometer30.08 in30.14 in (9:55 am)30.04 in (11:15 pm)
Wind Speed1.3 mph11.5 mph (7:55 am)
Wind Gust18.4 mph (8:15 am)
Weather ElementAverage
Visibility10 mi
Wind DirectionNNE (17.2 °)

Weather ElementTotal
Precipitation---
Heating Degree Days23.6 (Base 65)
Averaged from 69 records on February 5, 2013
WEATHER CONDITIONS BREAKOUT
WIND DIRECTION BREAKOUT
WEATHER BY HOUR - FEBRUARY 5, 2013
[ °C ]   °F
Local TimeTemperatureDewpointHumidityBarometerVisibilityWind DirectionWind SpeedGust SpeedPrecipitationEventsConditions
12:35 AM35.6 °F16.7 °F46 %30.07 in10.0 miCalmClear
12:55 AM33.3 °F17.6 °F53 %30.07 in10.0 miCalmClear
1:15 AM33.1 °F19.4 °F57 %30.07 in10.0 miCalmClear
1:35 AM34.2 °F18.9 °F54 %30.07 in10.0 miCalmClear
1:55 AM34.7 °F16.5 °F48 %30.08 in10.0 miCalmClear
2:15 AM36.9 °F14.4 °F40 %30.07 in10.0 miCalmClear
2:35 AM35.4 °F14.7 °F43 %30.07 in10.0 miCalmClear
2:55 AM35.1 °F15.3 °F44 %30.06 in10.0 miCalmClear
3:15 AM36.5 °F12.9 °F38 %30.06 in10.0 miCalmClear
3:35 AM32.0 °F19.2 °F59 %30.07 in10.0 miENE (60°)6.9 mphClear
3:55 AM32.0 °F20.3 °F62 %30.07 in10.0 miCalmClear
4:15 AM30.6 °F20.3 °F66 %30.07 in10.0 miCalmClear
4:35 AM30.6 °F20.3 °F66 %30.07 in10.0 miCalmClear
4:55 AM32.0 °F20.3 °F62 %30.07 in10.0 miCalmClear
5:15 AM32.2 °F18.1 °F56 %30.08 in10.0 miCalmClear
5:35 AM32.9 °F15.6 °F49 %30.08 in10.0 miCalmClear
5:55 AM32.4 °F17.2 °F54 %30.08 in10.0 miCalmClear
6:15 AM31.3 °F18.0 °F58 %30.09 in10.0 miNNE (30°)3.5 mphClear
6:35 AM30.4 °F20.5 °F67 %30.09 in10.0 miNE (50°)3.5 mphClear
6:55 AM31.5 °F18.9 °F60 %30.09 in10.0 miCalmClear
7:15 AM30.2 °F19.2 °F64 %30.09 in10.0 miNE (50°)3.5 mphClear
7:35 AM30.9 °F18.3 °F60 %30.09 in10.0 miNorth (10°)9.2 mphClear
7:55 AM34.9 °F14.7 °F44 %30.09 in10.0 miNorth (350°)11.5 mph17.3 mphClear
8:15 AM36.1 °F14.7 °F42 %30.10 in10.0 miNNE (30°)4.6 mph18.4 mphClear
8:35 AM34.9 °F17.1 °F48 %30.10 in10.0 miNNE (30°)4.6 mphClear
8:55 AM35.8 °F19.9 °F53 %30.11 in10.0 miCalmClear
9:15 AM37.0 °F21.0 °F52 %30.12 in10.0 miEast (100°)3.5 mphClear
9:35 AM38.7 °F19.4 °F46 %30.13 in10.0 miCalmClear
9:55 AM40.1 °F22.6 °F50 %30.14 in10.0 miENE (70°)3.5 mphClear
10:15 AM39.9 °F20.8 °F47 %30.14 in10.0 miNE (50°)5.8 mphClear
10:35 AM40.5 °F18.0 °F40 %30.14 in10.0 miNNE (30°)4.6 mphClear
10:55 AM42.8 °F15.3 °F33 %30.14 in10.0 miNNE (20°)5.8 mphClear
11:15 AM43.9 °F15.4 °F32 %30.14 in10.0 miENE (60°)4.6 mphClear
11:35 AM44.4 °F14.4 °F30 %30.13 in10.0 miNE (40°)8.1 mphClear
11:55 AM45.0 °F14.0 °F29 %30.12 in10.0 miCalmClear
12:15 PM46.4 °F14.0 °F27 %30.11 in10.0 miCalmClear
12:35 PM46.6 °F14.0 °F27 %30.10 in10.0 miCalmClear
12:55 PM47.8 °F13.6 °F25 %30.09 in10.0 miCalmClear
1:15 PM47.8 °F13.1 °F25 %30.08 in10.0 miCalmClear
1:35 PM49.1 °F13.3 °F24 %30.07 in10.0 miCalmClear
1:55 PM49.5 °F13.8 °F24 %30.06 in10.0 miEast (80°)3.5 mphClear
2:15 PM50.5 °F13.5 °F23 %30.06 in10.0 miSE (130°)4.6 mphClear
2:35 PM51.6 °F12.9 °F21 %30.05 in10.0 miCalmClear
2:55 PM52.7 °F12.7 °F20 %30.05 in10.0 miCalmClear
3:15 PM52.5 °F12.2 °F20 %30.05 in10.0 miCalmClear
3:35 PM52.5 °F12.7 °F21 %30.05 in10.0 miCalmClear
3:55 PM51.6 °F12.2 °F21 %30.05 in10.0 miCalmClear
4:15 PM51.8 °F13.6 °F22 %30.05 in10.0 miCalmClear
4:35 PM51.4 °F12.9 °F22 %30.05 in10.0 miCalmClear
4:55 PM51.1 °F13.5 °F22 %30.06 in10.0 miCalmClear
5:15 PM49.8 °F12.0 °F22 %30.05 in10.0 miCalmClear
5:35 PM48.7 °F10.9 °F22 %30.06 in10.0 miCalmClear
5:55 PM47.8 °F10.8 °F22 %30.06 in10.0 miCalmClear
6:15 PM46.9 °F11.3 °F24 %30.06 in10.0 miCalmClear
6:35 PM45.9 °F13.1 °F27 %30.06 in10.0 miCalmClear
6:55 PM44.8 °F14.7 °F30 %30.07 in10.0 miCalmClear
7:15 PM44.8 °F14.5 °F30 %30.07 in10.0 miCalmClear
7:35 PM43.5 °F15.3 °F32 %30.07 in10.0 miCalmClear
8:15 PM42.8 °F16.7 °F35 %30.06 in10.0 miCalmClear
8:35 PM43.0 °F16.5 °F34 %30.06 in10.0 miCalmClear
8:55 PM43.3 °F16.5 °F34 %30.06 in10.0 miCalmClear
9:15 PM42.3 °F16.9 °F36 %30.06 in10.0 miCalmClear
9:35 PM42.8 °F16.7 °F35 %30.06 in10.0 miCalmClear
9:55 PM44.6 °F14.9 °F30 %30.06 in10.0 miCalmClear
10:15 PM43.9 °F14.9 °F31 %30.05 in10.0 miCalmClear
10:35 PM43.2 °F14.9 °F32 %30.05 in10.0 miCalmClear
10:55 PM41.2 °F14.9 °F34 %30.05 in10.0 miCalmClear
11:15 PM41.7 °F12.6 °F31 %30.04 in10.0 miCalmClear
11:35 PM41.7 °F12.6 °F31 %30.04 in10.0 miCalmClear
Hourly data recorded from KLAM, located miles away from Jemez Spring, New Mexico







STORIES FROM OUR PARTNERS